Погода в Востоке

Россия / Приморский край     46°26′50″N   135°49′32″E
темп.,
°C
ветер,
м/с
пор.,
м/с
влажн.,
%
обл.,
%
осадки,
мм/ч
давл.,
гПа
погр.,
м
24 января, пн
пн2401:00−25ю2210097 0.0 102830
04:00−26ю229996 0.1 102929
07:00−27ю229966 0.0 102927
10:00−21ю129628 0.0 102880
13:00−14з1285100 0.0 1026529
16:00−13з2385100 0.1 1025591
19:00−20ююз229970 0.0 102715
22:00−23ю229958 0.1 102826
25 января, вт
вт2501:00−24ююв229966 0.0 102830
04:00−24ююв229962 0.0 102828
07:00−25ююв229965 0.0 102822
10:00−18ююв129566 0.0 102674
13:00−11сз118595 0.0 1023499
16:00−11ссз2288100 0.1 1022387
19:00−17юв119994 0.1 102410
22:00−20ююв219992 0.1 102414
26 января, ср
ср2601:00−22ююв2210077 0.0 102514
04:00−23ююв2210079 0.0 102414
07:00−23ююв2110075 0.0 102414
10:00−17ю019658 0.0 102362
13:00−11сз228799 0.0 1021517
16:00−11сз2286100 0.1 1020542
19:00−18юз119987 0.0 102312
22:00−18ююз119996 0.1 102420
27 января, чт
чт2701:00−18ююз219881 0.1 102427
04:00−19ююз229998 0.1 102534
07:00−20ю229998 0.1 102531
10:00−18ю129578 0.1 1025102
13:00−13з2384100 0.1 1023818
16:00−13з3487100 0.2 1021712
19:00−18юз1299100 0.1 102346
22:00−21ююз2499100 0.2 102355
28 января, пт
пт2801:00−22ю3498100 0.1 102262
04:00−21ю2499100 0.1 102185
07:00−20ююз2499100 0.3 1019103
10:00−18юз2695100 0.4 1017341
13:00−15зюз4989100 0.4 10141024
16:00−15з5992100 0.8 10131275
19:00−18з4897100 0.4 1014834
22:00−21зюз3798100 0.7 1015422